Temperature
10 11 10 10 10 10 10 10 10 10 10 12 13 13 14 15 15 15 14 14 14 14 13 13 12 12 11 10 10 9 9 8 8 7 7 6 6 5 5 5 4 4 3 3
10 10 10 10 10 10 10 10 10 10 11 12 13 14 13 14 14 14 15 15 15 14 13 13 12 12 11 10 9 9 8 8 7 7 6 6 5 5 5 4 4 3 3 3
9 10 10 9 10 10 9 9 10 11 12 13 12 11 12 14 14 15 15 15 15 14 14 13 12 11 11 10 9 8 8 7 7 6 6 5 5 5 4 4 3 3 3 2
8 9 9 11 11 11 10 10 10 10 11 11 11 13 14 14 14 15 15 15 15 14 13 12 11 10 10 9 8 8 7 7 6 6 5 5 4 4 4 3 3 2 2 2
7 8 8 9 10 10 10 10 10 10 10 11 11 11 12 14 14 14 14 14 14 13 12 11 10 9 9 8 7 7 7 6 6 5 5 4 4 4 3 3 2 2 2 1
6 8 8 10 11 10 10 10 11 10 10 9 9 9 11 14 14 14 13 13 13 12 11 10 9 8 8 7 7 7 6 6 5 5 4 4 3 3 3 2 2 1 1 1
7 8 8 9 10 10 10 11 12 12 11 10 8 11 12 13 13 13 12 12 11 11 10 9 8 8 7 6 6 6 5 5 4 4 4 3 3 2 2 2 1 1 1 0
6 7 8 9 9 10 11 13 13 13 13 12 12 12 12 12 12 12 11 10 10 9 8 8 7 7 6 6 5 5 5 4 4 3 3 3 2 2 1 1 0 0 -0 -0
8 10 10 10 11 13 13 13 13 14 14 13 12 12 12 11 11 10 10 9 8 8 7 7 6 6 5 5 5 4 4 4 3 3 2 2 2 1 1 0 -0 -1 -1 -1
7 7 8 10 11 13 13 13 14 14 13 13 12 12 11 11 10 9 8 8 7 7 7 6 5 5 4 4 4 4 3 3 3 2 2 1 1 0 -0 -0 -1 -1 -2 -2
7 7 8 10 12 13 13 13 13 13 13 12 12 11 11 10 9 8 8 7 6 6 6 5 4 4 4 3 3 3 3 2 2 1 1 1 0 -0 -1 -1 -2 -2 -3 -4
8 8 8 10 14 13 13 13 12 12 12 11 11 11 10 9 8 7 7 6 6 5 5 4 4 3 3 3 2 2 2 2 1 1 0 0 -0 -1 -1 -2 -2 -3 -4 -4
11 12 12 13 13 13 12 12 12 11 11 11 10 9 9 8 7 6 6 5 5 4 4 4 3 3 2 2 2 1 1 1 0 -0 -0 -1 -2 -2 -2 -2 -3 -4 -4 -5
11 11 10 11 12 12 11 11 11 10 10 9 9 8 8 7 6 5 5 4 4 3 3 3 2 2 2 1 1 1 0 -0 -0 -1 -1 -2 -2 -3 -4 -4 -5 -4 -5 -6
10 11 11 11 11 10 10 10 9 9 9 8 7 7 6 6 5 4 4 3 3 3 2 2 2 1 1 1 0 -0 -0 -1 -1 -2 -2 -3 -3 -4 -5 -5 -6 -6 -6 -6
9 9 9 9 10 9 9 9 8 8 7 7 6 6 5 5 4 3 3 3 2 2 2 1 1 1 0 -0 -0 -1 -1 -2 -2 -3 -3 -4 -4 -5 -6 -6 -7 -7 -7 -7
8 7 7 8 8 8 8 8 8 7 6 6 5 4 4 3 3 2 2 2 2 1 1 1 0 -0 -0 -1 -1 -2 -2 -2 -3 -4 -4 -5 -6 -6 -7 -7 -8 -8 -8 -8
9 9 9 9 8 7 7 6 6 5 5 4 4 3 3 2 2 2 1 1 1 1 0 -0 -0 -1 -1 -2 -2 -3 -3 -3 -4 -5 -5 -6 -7 -7 -8 -8 -8 -9 -9 -9
7 7 7 7 7 6 6 5 4 4 4 3 3 2 2 1 1 1 1 0 0 -0 -0 -1 -1 -1 -2 -2 -3 -3 -4 -4 -5 -6 -7 -7 -8 -8 -9 -9 -9 -10 -10 -10
6 6 6 5 5 5 4 4 3 3 2 2 2 1 1 1 0 0 -0 -0 -1 -1 -1 -2 -2 -2 -3 -3 -4 -4 -5 -6 -7 -7 -8 -8 -9 -9 -9 -10 -10 -10 -11 -11
4 4 4 4 4 3 3 3 2 2 1 1 1 0 0 -0 -0 -1 -1 -1 -1 -2 -2 -2 -3 -3 -4 -4 -5 -6 -7 -7 -8 -8 -9 -9 -10 -10 -10 -11 -11 -11 -12 -12
3 3 3 3 2 2 1 1 1 1 0 0 -0 -0 -1 -1 -1 -2 -2 -2 -2 -3 -3 -3 -4 -4 -5 -6 -7 -7 -8 -8 -9 -9 -10 -10 -11 -11 -11 -12 -12 -12 -12 -12
2 2 2 1 1 0 0 -0 -0 -0 -0 -1 -1 -1 -2 -2 -2 -3 -3 -3 -3 -4 -4 -5 -5 -6 -7 -8 -8 -8 -9 -9 -10 -10 -10 -11 -11 -12 -12 -12 -12 -13 -13 -13
1 0 0 0 -0 -0 -1 -1 -1 -1 -1 -2 -2 -2 -3 -3 -3 -3 -4 -4 -4 -5 -5 -6 -6 -7 -8 -8 -9 -9 -9 -10 -10 -11 -11 -12 -12 -12 -13 -13 -13 -13 -13 -13
-0 -0 -1 -1 -1 -1 -1 -2 -2 -2 -2 -2 -3 -3 -3 -4 -4 -4 -5 -5 -5 -6 -6 -7 -7 -8 -8 -9 -9 -10 -10 -11 -11 -12 -13 -13 -13 -13 -13 -13 -13 -14 -14 -14
-1 -1 -1 -1 -2 -2 -2 -2 -3 -3 -3 -3 -3 -4 -4 -4 -5 -5 -6 -6 -6 -7 -7 -8 -8 -9 -9 -10 -10 -10 -11 -11 -12 -12 -13 -13 -13 -13 -14 -14 -14 -14 -14 -14
-2 -2 -2 -2 -3 -3 -3 -3 -3 -4 -4 -4 -4 -4 -5 -5 -6 -6 -7 -7 -7 -8 -8 -9 -9 -10 -10 -10 -11 -11 -12 -12 -12 -13 -13 -13 -14 -14 -14 -14 -14 -14 -14 -14
Wind_Speed
7 7 8 9 10 13 14 14 13 12 13 16 15 13 12 10 8 6 8 9 12 13 12 12 12 12 12 11 11 11 11 10 9 7 6 6 5 5 4 4 5 5 5 6
7 7 7 7 10 13 15 13 14 13 14 15 12 9 10 10 9 9 10 11 11 12 12 13 14 13 12 12 11 11 11 9 8 7 6 5 5 4 4 4 5 5 6 6
6 5 3 8 12 13 10 9 11 16 19 14 10 11 11 11 10 11 10 9 10 11 12 13 13 13 14 12 10 11 10 8 7 7 6 5 5 4 5 5 5 6 6 7
5 5 9 10 8 12 12 12 13 11 11 11 12 9 7 7 9 9 8 7 8 8 9 8 9 10 10 10 11 10 9 8 7 6 6 5 4 5 5 4 5 6 7 8
6 6 7 8 6 9 11 11 13 15 14 9 3 1 6 6 7 7 5 5 5 6 7 8 10 11 11 10 10 9 9 8 7 6 5 4 5 5 5 4 6 6 7 8
6 6 8 9 6 6 7 8 10 12 13 9 7 3 6 2 3 2 3 3 5 7 8 9 9 11 12 10 9 9 8 6 5 5 5 5 6 5 4 4 6 7 7 8
7 7 8 8 4 9 7 9 5 9 10 10 10 7 2 3 3 4 4 6 7 9 8 8 9 11 10 9 8 6 5 5 4 4 5 5 4 4 5 5 6 7 8 9
7 6 10 7 10 11 10 4 4 6 7 9 8 4 4 4 5 6 6 7 8 9 8 7 8 10 9 7 5 5 5 4 3 3 3 3 4 5 5 5 7 8 8 9
11 10 6 8 10 8 5 6 6 6 6 8 7 6 6 5 6 6 7 7 7 10 9 6 6 8 8 6 5 5 4 3 3 3 3 4 4 5 5 5 6 7 7 9
5 8 7 7 6 5 6 6 5 6 7 9 8 8 7 7 6 6 6 7 7 9 9 6 5 5 6 5 5 4 3 3 3 3 4 4 4 5 5 6 7 7 8 9
6 6 3 6 9 9 7 5 5 5 6 8 9 8 8 7 7 7 6 6 7 8 8 7 5 5 4 4 4 3 3 3 3 4 5 5 6 6 7 7 8 9 8 9
9 9 9 8 8 9 9 8 8 8 6 6 8 8 8 8 7 7 7 7 7 7 7 6 5 4 3 3 4 3 3 4 4 4 5 5 6 7 11 13 18 19 19 18
7 6 6 3 3 7 8 7 7 7 7 7 6 7 9 7 7 7 7 8 8 7 6 5 4 3 2 2 3 4 5 5 4 5 5 6 6 7 9 11 15 18 20 21
5 6 5 5 5 6 7 7 8 7 6 7 7 8 8 7 8 8 7 7 6 6 5 4 3 2 2 2 3 4 5 6 6 6 6 6 7 8 8 10 11 9 12 19
6 5 5 6 7 8 7 8 9 7 7 7 7 8 9 9 9 7 6 6 6 5 4 2 2 3 2 2 4 5 5 5 6 6 6 7 8 8 9 10 11 12 10 11
7 6 7 8 9 8 8 8 8 8 7 7 8 8 8 8 8 7 6 6 5 3 2 2 3 3 3 3 4 5 5 10 9 7 7 7 8 8 9 10 11 11 11 10
10 9 8 8 8 8 7 7 8 9 8 9 9 9 9 9 8 6 4 3 3 2 2 3 4 4 4 4 5 5 5 8 13 10 7 8 9 10 10 10 11 11 11 13
8 9 10 11 10 10 8 8 9 10 8 8 10 9 9 8 6 4 3 2 2 1 3 4 4 4 5 5 5 5 6 6 7 8 9 9 10 10 10 11 12 13 12 14
7 8 9 9 10 11 10 9 9 9 9 10 9 8 7 6 5 3 2 1 1 3 4 4 7 6 6 7 8 6 7 8 9 9 9 14 14 10 10 11 12 12 13 13
9 11 12 11 10 10 11 10 11 10 8 9 9 8 6 5 3 2 1 1 3 4 5 6 6 6 7 8 11 6 8 9 10 10 10 10 11 11 11 12 12 13 13 13
13 14 14 14 13 11 11 11 11 10 8 8 8 7 5 3 2 1 1 3 4 4 5 9 6 6 7 9 13 8 8 9 10 10 11 11 12 12 12 13 13 14 14 13
12 14 15 14 15 12 9 9 10 10 9 7 7 5 4 2 1 2 3 4 5 8 6 5 6 10 14 16 8 8 9 10 11 10 10 11 12 13 13 13 13 14 14 13
13 14 14 14 14 12 10 9 9 8 7 6 5 3 2 1 1 2 5 4 4 10 9 6 12 19 22 13 7 8 9 10 11 11 11 11 12 13 13 14 14 13 13 13
14 14 13 12 12 12 10 7 7 6 5 4 3 2 1 2 3 3 4 9 13 15 8 12 20 21 21 9 8 9 10 11 11 12 12 13 12 12 13 13 13 13 13 14
13 12 12 11 10 8 7 6 6 5 4 3 2 2 2 2 3 5 6 7 13 15 9 13 20 21 14 9 10 11 11 12 13 13 12 12 12 13 13 13 14 14 14 14
11 10 9 8 7 6 5 4 3 3 3 3 3 2 3 3 5 5 6 7 10 14 11 9 10 14 10 11 11 12 12 14 15 13 13 14 14 15 14 14 15 14 14 14
10 9 8 7 6 5 4 4 3 2 3 3 5 4 5 5 6 6 8 8 8 9 9 9 9 10 11 11 12 12 12 12 13 13 13 13 13 14 14 15 14 14 13 14
Wind_Direction
200 179 166 188 196 192 202 210 220 234 237 249 253 257 267 273 266 245 226 211 205 203 200 193 187 184 180 175 169 165 162 167 175 173 171 173 183 195 204 216 231 241 252 262
206 204 194 211 213 205 215 223 232 247 258 252 254 256 260 257 246 242 234 223 213 205 197 193 190 184 177 174 170 164 166 171 168 165 170 182 194 203 216 236 248 250 256 262
209 199 170 243 219 207 208 209 203 228 244 252 252 247 244 246 239 238 239 226 213 207 201 195 188 179 177 171 160 160 163 163 165 169 179 195 201 209 229 243 248 259 263 262
156 139 218 238 214 204 211 226 213 222 239 239 238 247 247 234 233 240 236 225 212 199 189 176 166 161 155 151 155 157 158 164 169 173 188 198 207 227 240 245 251 258 263 265
156 200 259 284 240 188 199 243 224 224 239 243 224 311 284 237 218 227 229 215 195 173 157 148 150 148 143 146 149 153 162 170 175 179 191 205 225 241 246 249 258 259 262 267
153 184 226 237 226 168 143 257 241 209 225 218 150 202 261 237 175 170 140 135 133 127 124 134 140 140 141 147 152 163 170 173 175 180 194 214 231 244 245 248 258 268 271 268
169 205 247 243 179 126 165 236 239 193 203 183 186 206 203 116 108 116 111 113 119 120 125 134 137 136 139 146 160 162 154 156 170 188 205 222 235 243 255 263 272 274 276 275
163 195 240 209 149 180 211 210 184 182 183 182 189 153 133 129 125 123 117 117 121 120 117 121 132 134 137 150 151 141 144 158 187 210 224 229 240 258 263 266 275 278 281 283
189 210 219 180 194 207 180 190 195 181 181 168 166 173 160 149 141 135 131 129 123 124 118 114 123 132 140 149 140 137 145 182 219 239 246 244 245 259 269 265 266 276 278 283
203 243 232 219 225 217 196 201 193 176 165 162 168 168 160 153 149 143 137 133 129 127 127 127 126 125 136 140 138 141 173 219 237 249 262 261 252 248 254 259 264 271 276 281
211 246 257 246 221 211 195 183 162 153 164 169 160 162 162 159 157 151 140 132 133 135 137 139 135 129 131 138 140 160 208 238 250 251 256 263 259 250 254 246 251 265 269 271
206 205 191 219 216 186 179 186 177 160 151 157 163 161 154 154 152 146 140 134 130 131 135 140 140 140 145 153 159 181 231 249 251 254 259 261 271 282 272 269 277 278 280 282
192 178 176 187 165 167 175 174 164 161 158 152 150 149 146 143 142 137 135 137 140 142 142 142 143 156 180 180 183 207 234 249 253 256 260 264 267 275 287 288 280 280 283 286
153 130 150 185 177 156 142 131 123 116 120 131 134 133 131 128 134 138 143 143 135 131 133 140 153 203 220 206 215 234 244 258 262 253 256 260 263 267 273 283 292 286 282 285
181 178 167 143 123 118 118 121 120 122 120 114 122 131 135 137 141 137 129 123 119 121 130 147 198 247 246 230 237 247 253 256 257 256 256 259 262 267 271 275 281 287 286 285
151 126 127 135 139 135 132 137 139 143 136 130 128 129 128 125 122 118 118 123 128 143 170 207 245 256 258 249 253 257 259 273 278 268 262 264 266 270 275 278 281 283 284 286
141 154 158 155 157 155 155 153 148 144 136 132 130 124 118 115 112 111 108 104 116 152 218 245 261 274 271 261 257 260 262 273 284 283 272 272 274 275 275 276 279 281 283 287
173 171 167 162 159 151 138 131 130 129 128 126 123 120 121 124 127 125 114 91 62 338 284 262 265 275 272 268 263 260 264 268 269 272 275 276 278 274 275 277 279 282 285 288
138 137 133 132 135 134 129 125 122 118 118 121 119 115 111 110 113 115 104 76 340 301 291 283 299 298 283 282 289 266 268 274 277 276 276 282 287 281 279 279 280 281 285 287
114 114 112 109 108 114 118 117 114 109 109 112 110 106 101 97 98 95 72 284 256 253 272 289 293 281 278 281 293 273 270 275 279 282 282 281 282 282 281 281 282 283 284 284
115 113 111 108 102 100 107 114 114 110 104 104 108 111 108 95 79 69 339 299 286 274 283 297 297 286 288 289 293 278 275 279 282 284 285 286 286 286 286 285 285 286 286 285
112 112 110 109 105 98 91 95 102 104 99 93 93 95 91 63 7 313 261 256 279 302 306 286 284 294 301 301 289 283 282 284 287 287 285 285 286 287 287 286 285 285 285 284
108 108 107 107 107 102 91 85 90 95 94 92 89 82 68 328 298 296 302 292 294 304 308 288 298 304 306 306 292 290 289 289 288 288 286 285 284 284 284 284 284 284 284 283
104 102 102 102 100 97 91 83 82 84 84 78 68 50 0 322 304 265 265 302 312 309 303 300 306 307 310 307 296 292 290 288 287 286 285 284 283 282 283 285 285 285 283 283
102 100 99 98 94 95 99 95 82 70 61 43 10 341 313 279 280 294 295 299 307 311 303 305 308 310 310 297 293 290 289 286 287 288 286 288 288 287 286 284 283 284 284 283
96 94 91 90 95 97 92 85 76 55 29 360 338 322 310 298 290 292 294 295 295 305 307 301 299 301 298 293 292 291 290 292 293 291 288 288 287 286 286 285 283 284 284 283
90 91 90 84 74 73 75 73 64 34 5 340 320 316 317 316 311 307 305 305 304 304 302 301 299 296 295 294 293 293 292 292 291 290 290 289 289 288 287 286 286 285 284 283
Height
1449 1449 1454 1455 1458 1462 1465 1465 1468 1463 1462 1453 1448 1447 1445 1444 1444 1443 1443 1444 1445 1447 1450 1454 1457 1461 1465 1470 1474 1478 1481 1484 1487 1489 1490 1491 1492 1492 1492 1491 1490 1489 1488 1486
1448 1448 1450 1452 1452 1455 1456 1456 1457 1456 1453 1442 1441 1442 1441 1440 1439 1439 1439 1439 1441 1443 1445 1448 1451 1455 1459 1464 1469 1473 1477 1480 1483 1485 1486 1487 1488 1488 1487 1486 1485 1484 1482 1480
1451 1447 1451 1454 1447 1447 1449 1448 1449 1449 1441 1434 1437 1436 1435 1434 1434 1434 1434 1435 1436 1438 1440 1442 1445 1449 1454 1459 1464 1469 1473 1476 1479 1481 1482 1483 1483 1483 1482 1481 1480 1478 1476 1474
1449 1452 1456 1439 1430 1432 1436 1435 1436 1434 1430 1429 1430 1429 1429 1429 1430 1429 1430 1431 1433 1434 1436 1439 1442 1446 1451 1456 1460 1465 1469 1472 1475 1476 1477 1478 1478 1478 1477 1475 1474 1472 1470 1467
1449 1449 1444 1435 1428 1428 1432 1431 1425 1426 1424 1424 1426 1427 1425 1424 1425 1426 1427 1428 1430 1431 1433 1436 1440 1444 1448 1452 1457 1462 1465 1468 1470 1472 1473 1473 1473 1472 1471 1469 1467 1465 1463 1460
1444 1443 1441 1427 1418 1417 1425 1428 1416 1417 1418 1420 1425 1430 1424 1421 1422 1423 1425 1426 1427 1429 1431 1435 1438 1442 1446 1450 1455 1458 1462 1464 1466 1467 1468 1468 1467 1466 1465 1463 1460 1458 1455 1453
1437 1436 1431 1418 1415 1418 1430 1422 1409 1410 1412 1415 1419 1419 1420 1420 1421 1422 1423 1425 1426 1428 1431 1434 1438 1441 1445 1449 1453 1456 1459 1461 1462 1463 1463 1463 1462 1460 1459 1456 1453 1451 1448 1445
1432 1433 1427 1409 1413 1415 1410 1406 1406 1407 1409 1411 1413 1415 1417 1418 1420 1421 1422 1424 1426 1428 1431 1435 1438 1441 1444 1448 1451 1454 1456 1457 1458 1458 1458 1457 1456 1454 1452 1449 1446 1442 1439 1435
1408 1407 1401 1400 1400 1400 1402 1403 1404 1405 1407 1409 1411 1413 1415 1417 1419 1420 1422 1424 1426 1429 1432 1435 1438 1441 1444 1447 1449 1451 1452 1453 1454 1453 1453 1451 1449 1447 1445 1442 1438 1434 1431 1426
1402 1399 1396 1396 1396 1397 1399 1401 1402 1403 1405 1407 1409 1411 1413 1415 1417 1419 1422 1424 1426 1429 1432 1434 1438 1441 1443 1445 1447 1448 1448 1449 1449 1448 1447 1445 1443 1441 1438 1434 1431 1427 1423 1418
1396 1393 1392 1391 1391 1393 1395 1398 1399 1401 1403 1405 1407 1409 1411 1414 1416 1418 1421 1423 1426 1429 1431 1434 1437 1439 1441 1442 1443 1444 1444 1444 1443 1442 1440 1438 1436 1433 1430 1427 1424 1419 1415 1411
1386 1383 1385 1384 1386 1389 1391 1393 1396 1399 1401 1403 1405 1407 1410 1412 1415 1417 1420 1423 1425 1428 1431 1433 1435 1437 1438 1439 1439 1439 1439 1438 1437 1435 1433 1430 1427 1424 1421 1419 1415 1411 1408 1404
1373 1375 1378 1380 1383 1385 1388 1390 1393 1396 1399 1401 1403 1406 1408 1410 1413 1416 1419 1422 1424 1427 1430 1432 1433 1434 1435 1435 1435 1434 1433 1432 1430 1428 1425 1422 1419 1415 1410 1408 1405 1402 1399 1395
1370 1373 1376 1378 1380 1382 1385 1388 1391 1394 1397 1399 1401 1404 1406 1409 1412 1415 1418 1421 1424 1426 1428 1429 1430 1431 1431 1431 1430 1429 1427 1425 1423 1420 1418 1414 1411 1407 1403 1397 1393 1389 1388 1385
1367 1370 1373 1375 1377 1380 1383 1386 1389 1392 1394 1397 1400 1402 1405 1408 1411 1414 1417 1420 1422 1424 1425 1426 1427 1427 1427 1426 1424 1423 1421 1418 1416 1412 1409 1406 1402 1398 1394 1390 1385 1380 1376 1373
1364 1367 1370 1372 1375 1378 1381 1384 1387 1390 1393 1395 1398 1401 1404 1407 1410 1413 1416 1418 1420 1421 1422 1423 1423 1423 1421 1420 1418 1416 1414 1411 1408 1404 1401 1397 1393 1390 1385 1381 1376 1372 1367 1364
1360 1363 1367 1370 1373 1376 1379 1382 1385 1388 1391 1395 1398 1401 1404 1407 1410 1412 1414 1416 1418 1419 1419 1419 1418 1417 1416 1414 1411 1409 1406 1403 1400 1396 1392 1388 1384 1380 1376 1372 1367 1363 1359 1355
1357 1360 1363 1366 1370 1374 1378 1381 1385 1388 1391 1394 1398 1401 1404 1406 1409 1411 1413 1414 1415 1415 1415 1414 1413 1411 1410 1407 1404 1401 1398 1394 1391 1387 1383 1379 1375 1371 1367 1363 1358 1354 1348 1345
1354 1358 1362 1366 1369 1373 1376 1380 1384 1388 1391 1395 1398 1401 1403 1406 1408 1409 1410 1411 1411 1411 1410 1409 1407 1405 1403 1400 1397 1393 1389 1385 1381 1377 1373 1369 1365 1361 1357 1353 1348 1344 1339 1335
1352 1357 1361 1365 1369 1373 1377 1381 1385 1388 1392 1395 1398 1401 1403 1405 1406 1407 1408 1408 1407 1406 1404 1403 1401 1398 1395 1392 1388 1384 1380 1376 1372 1368 1364 1360 1355 1351 1347 1343 1338 1334 1329 1325
1352 1356 1361 1365 1370 1374 1378 1382 1386 1389 1393 1396 1399 1400 1402 1403 1404 1404 1404 1403 1403 1401 1399 1397 1394 1390 1387 1383 1379 1375 1371 1367 1363 1358 1354 1350 1345 1341 1336 1332 1328 1324 1319 1315
1353 1358 1362 1367 1371 1376 1381 1385 1388 1391 1394 1396 1398 1400 1401 1401 1401 1401 1400 1399 1397 1395 1392 1389 1386 1382 1378 1374 1370 1366 1362 1358 1353 1349 1344 1339 1335 1330 1325 1321 1317 1313 1309 1305
1357 1361 1366 1370 1374 1379 1383 1387 1390 1392 1394 1396 1397 1398 1398 1398 1397 1396 1395 1393 1391 1388 1385 1381 1378 1374 1370 1365 1361 1357 1352 1348 1343 1338 1334 1329 1324 1320 1315 1311 1307 1303 1299 1295
1361 1366 1370 1375 1378 1382 1385 1388 1391 1393 1394 1395 1396 1396 1395 1394 1393 1392 1389 1387 1384 1380 1377 1373 1369 1365 1361 1356 1352 1347 1342 1337 1332 1328 1323 1318 1314 1310 1306 1301 1297 1293 1289 1285
1366 1371 1375 1378 1382 1384 1387 1389 1391 1392 1393 1394 1394 1393 1392 1390 1388 1386 1383 1380 1376 1372 1368 1364 1361 1356 1351 1347 1342 1337 1332 1327 1323 1318 1314 1309 1305 1300 1296 1291 1287 1283 1279 1275
1371 1375 1378 1381 1384 1386 1388 1390 1390 1391 1391 1391 1390 1389 1387 1385 1382 1379 1376 1372 1368 1364 1360 1356 1351 1347 1342 1337 1332 1327 1322 1317 1313 1308 1304 1299 1294 1290 1285 1281 1277 1273 1269 1264
1375 1378 1381 1383 1385 1387 1388 1389 1389 1389 1388 1387 1386 1384 1382 1379 1376 1372 1368 1365 1361 1356 1352 1347 1343 1338 1333 1328 1323 1318 1313 1308 1304 1299 1294 1289 1285 1280 1275 1271 1267 1263 1258 1254